Retour au catalogue

COSMOS 1275 DEB

ActifPO
NORAD 18505·DEBRIS·🇷🇺 Russia

Lancé Jun 4, 1981 depuis Plesetsk Cosmodrome

Loading…

Prochains Passages (prochaines 24 heures)

TLE

FraisSource: Space-Track

Époque: Sep 14, 2026, 07:15 UTC

1 18505U 81053LS  26257.30215281  .00000861  00000-0  55082-3 0  9998
2 18505  83.2885  14.4455 0069174  62.0114 298.8034 14.01112725 85785

Suivez COSMOS 1275 DEB en temps réel avec AllMySat

Download on the App Store